AirNav   Everest Fuels
 
 678 users online  

PALH Lake Hood Airport
Anchorage, Alaska, USA

GOING TO ANCHORAGE?


FAA INFORMATION EFFECTIVE 04 NOVEMBER 2021

Location

FAA Identifier: LHD
Lat/Long: 61-11-11.9011N 149-57-55.4171W
61-11.198352N 149-57.923618W
61.1866392,-149.9653936
(estimated)
Elevation: 79.3 ft. / 24.2 m (surveyed)
Variation: 25E (1985)
From city: 3 miles SW of ANCHORAGE, AK
Time zone: UTC -8 (UTC -9 during Standard Time)
Zip code: 99517

Airport Operations

Airport use: Open to the public
Activation date: 06/1947
Control tower: yes
ARTCC: ANCHORAGE CENTER
FSS: KENAI FLIGHT SERVICE STATION [907-283-7211]
NOTAMs facility: LHD (NOTAM-D service available)
Attendance: CONTINUOUS
Pattern altitude: 679.3 ft. MSL
Wind indicator: yes
Segmented circle: no
Lights: SS-SR

Airport Communications

CTAF: 126.8
ATIS: 125.6
WX ASOS: PHONE 907-245-5432
LAKE HOOD TOWER: 126.8
ANCHORAGE APPROACH: 119.1
ANCHORAGE DEPARTURE: 119.1
CLEARANCE DELIVERY: 119.4
CLASS C: 119.1
WX ASOS at ANC (1.2 nm SW): PHONE 907-271-5278
WX ASOS at MRI (4 nm NE): 124.25 (907-271-5277)
WX ASOS at FRN (10 nm NE): 134.25
WX AWOS-3P at BCV (19 nm NE): 135.55 (907-688-0826)
  • 907-245-5432

Nearby radio navigation aids

VOR radial/distance  VOR name  Freq  Var
TEDr334/1.1ANCHORAGE VOR/DME113.1518E
BGQr161/23.0BIG LAKE VORTAC112.5019E

Airport Services

Fuel available: 100 100LL JET-A
100LL:FUEL AVBL RY 14/32 TRANSIENT PARKING AND FM VARIOUS FIXED BASE OPERATORS.
Parking: hangars and tiedowns
Airframe service: MAJOR
Powerplant service: MAJOR
Bottled oxygen: NONE
Bulk oxygen: NONE

Runway Information

Runway 14/32

Dimensions: 2200 x 75 ft. / 671 x 23 m
Surface: gravel/dirt, in good condition
Weight bearing capacity: 
Single wheel: LIMITED TO ACFT 9000 LBS OR LESS.
Runway edge lights: medium intensity
RUNWAY 14  RUNWAY 32
Latitude: 61-11.359693N61-11.037010N
Longitude: 149-58.091452W149-57.755785W
Elevation: 74.6 ft.79.3 ft.
Traffic pattern: leftright
Runway heading: 128 magnetic, 153 true308 magnetic, 333 true
Touchdown point: yes, no lightsyes, no lights
Obstructions: 49 ft. tree, 950 ft. from runway, 18 ft. left of centerline, 19:1 slope to clear38 ft. tree, 633 ft. from runway, 109 ft. left of centerline, 16:1 slope to clear

Runway E/W

Dimensions: 4541 x 188 ft. / 1384 x 57 m
Surface: water
RUNWAY E  RUNWAY W
Traffic pattern: leftleft

Runway N/S

Dimensions: 1930 x 200 ft. / 588 x 61 m
Surface: water
RUNWAY N  RUNWAY S
Traffic pattern: leftleft

Runway SE/NW

Dimensions: 1369 x 150 ft. / 417 x 46 m
Surface: water
RUNWAY NW  RUNWAY SE
Traffic pattern: leftleft

Airport Ownership and Management from official FAA records

Ownership: Publicly-owned
Owner: STATE OF AK - DOT & PF
PO BOX 196960
ANCHORAGE, AK 99519-6960
Phone 907-266-2741
Manager: TIM COONS
STATE OF AK - DOT & PF, PO BOX 196960
ANCHORAGE, AK 99519-6960
Phone 907-266-2741

Airport Operational Statistics

Aircraft based on the field: 1032
Single engine airplanes: 999
Multi engine airplanes: 33
  • TOTAL: 1185.
    
Aircraft operations: avg 203/day *
60% transient general aviation
25% air taxi
15% local general aviation
<1% commercial
<1% military
* for 12-month period ending 31 December 2017

Additional Remarks

PUB RAMPS ON N & W SHORE OF LAKE HOOD.
ANCHORAGE WX CAMERA AVBL ON INTERNET AT HTTP://AVCAMS.FAA.GOV
NOISE SENSITIVE AREA IN EFFECT; CTC AMGR 907-266-2741 FOR FURTHER INFO.
TWY V PCL SECURITY GATE EAST OF TWY E; KEY 121.75 5 TIMES TO ACTVT.
FLOATING DEBRIS ON LAKE.
SEE NOTICE IN SECTION C FOR AIRPORT LAYOUT GRAPHIC.
TWY AROUND LAKE HOOD IS A JOINT USE TWY/ROAD & IS USED BY MOTOR VEHICLES/BICYCLISTS/JOGGERS AND TOUR BUSES. USE OF LANDING LIGHT WHEN TAXIING RCMDD.
TWY H-2/LAKESHORE TWY GATES PCL; KEY 121.75 3 TIMES TO ACTVT.
PPR FOR NON-RADIO OPNS. CTC FAA AT 907-271-5936. REQUEST TO BE TRANSFERRED TO ATCT. PROVIDE AN ETA AND REMAIN WITHIN PLUS/MINUS 15 MIN. NO NIGHTIME NON-RADIO ACFT OPNS.
RY 14/32 TFC PATTERNS OVERLAP SEADROME PATTERNS.
LAKE CLSD TO ACFT OVER 12500 LBS FM FREEZUP TIL APRXLY DEC 31; OVERFLOWS INTO ICE MAY OCCUR WINTER MONTHS.
AREA NW & SW OF LAKE SPENARD FM CANAL EASTWARD 1500' NOT VSBL FM ATCT.
NUMEROUS WATERFOWL AND NESTING AREAS INVOF ARPT.
FOR AVBLTY OF WINTER SKI OPNS ON LAKE SURFACES, CONSULT LOCAL NOTAMS AND CTC TWR PRIOR TO ARR /DEP.
NORTH POTHOLE DESIGNATED NO-WAKE AREA TO PROTECT MOORED AIRCRAFT/SHORELINE
ALL WATERLANES ELEV 76 FT TO LAKE HOOD SEAPLANE BASE (LHD).
ARRIVAL/DEPARTURE ROUTES; SEE AREA NOTICES.
LARGE FLOCKS OF MIGRATORY BIRDS INVOF ARPT SPRING TO FALL.

Instrument Procedures

There are no published instrument procedures at PALH.

Some nearby airports with instrument procedures:

PANC - Ted Stevens Anchorage International Airport (1 nm SW)
PAMR - Merrill Field Airport (4 nm NE)
PAED - Elmendorf Air Force Base (6 nm NE)
PAFR - Bryant Army Airfield Heliport (10 nm NE)
PAGQ - Big Lake Airport (21 nm N)
 
Loc | Ops | Rwys | IFR | FBO | Links
Com | Nav | Svcs | Stats | Notes

Crowley
 
Area around PALH (Lake Hood Airport)
 
Road maps at: MapQuest Bing Google
 
Aerial photo
WARNING: Photo may not be current or correct
Aerial photo of PALH (Lake Hood Airport)
Do you have a better or more recent aerial photo of Lake Hood Airport that you would like to share? If so, please send us your photo.

 
Sectional chart

 
Airport distance calculator
Flying to Lake Hood Airport? Find the distance to fly.

From to PALH

Sunrise and sunset
Times for 28-Nov-2021
 Local
(UTC-9)
 Zulu
(UTC)
Morning civil twilight08:4317:43
Sunrise09:4018:40
Sunset15:5600:56
Evening civil twilight16:5301:53

Current date and time
Zulu (UTC)  28-Nov-2021 11:01:42
Local (UTC-9)  28-Nov-2021 02:01:42
 
METAR
PALH 281053Z AUTO 00000KT 10SM CLR M22/M24 A2948 RMK AO2 SLP983 T12221244 TSNO
PANC 
2nm SW 
281053Z 00000KT 10SM CLR M22/M25 A2946 RMK AO2 SLP981 T12171250 $
PAMR 
4nm NE 
281053Z 00000KT 10SM CLR M22/M25 A2946 RMK AO2 SLP981 T12171250 $
PAED 
6nm NE 
281056Z 00000KT 10SM CLR M25/M28 A2945 RMK AO2A SLP974 T12501282 $
PAFR 
10nm NE 
281058Z AUTO 02005KT 10SM CLR M28/M31 A2941 RMK AO2 SLP979 T12851313 PNO $
PABV 
19nm NE 
281056Z AUTO 00000KT 10SM CLR M27/M29 A2949 RMK AO2 SLP996 T12671294 FZRANO
TAF
PANC 
2nm SW 
272100Z 2721/2824 02005KT P6SM FEW025 BKN080 FM281400 VRB06KT P6SM SCT035 BKN050 OVC060
PAED 
6nm NE 
280301Z 2803/2909 VRB06KT 9999 FEW080 QNH2942INS TEMPO 2803/2809 MIFG FEW015 BECMG 2810/2811 VRB06KT 8000 BR VCFG FEW100 QNH2944INS BECMG 2821/2822 VRB06KT 9999 NSW FEW045 FEW080 QNH2955INS TXM23/2803Z TNM27/2816Z
NOTAMs
Click for the latest NOTAMs
NOTAMs are issued by the DoD/FAA and will open in a separate window not controlled by AirNav.

 

 
 

FBO, Fuel Providers, and Aircraft Ground Support

  
 Business Name 
 
 Contact 
 
 Services / Description 
 
Fuel Prices
 
Comments
  
 Crowley
907-222-3000
[web site]
Aviation fuel

More info about Crowley
independent
100LL
SS $5.94 
 Updated 25-Oct-2021
 
   write
SS=Self service
Update Fuel Prices
 

Would you like to see your business listed on this page?

 If your business provides an interesting product or service to pilots, flight crews, aircraft, or users of the Lake Hood Airport, you should consider listing it here.  To start the listing process, click on the button below
 
Add a business
 

Other Pages about Lake Hood Airport

www.alaska.faa.gov/...
www.dot.state.ak.us/...
 
Update a link
 
Copyright © AirNav, LLC. All rights reserved. Privacy Policy  Contact